Time,TemperatureF,DewpointF,PressureIn,WindDirection,WindDirectionDegrees,WindSpeedMPH,WindSpeedGustMPH,Humidity,HourlyPrecipIn,Conditions,Clouds,dailyrainin,SoftwareType,DateUTC
2013-04-19 00:11:00,27.0,17.0,-100.00,SW,228,2.0,6.0,66,0.00,,,0.00,,2013-04-19 06:11:00,
2013-04-19 00:22:00,27.0,17.0,-100.00,SW,228,2.0,6.0,66,0.00,,,0.00,,2013-04-19 06:22:00,
2013-04-19 00:32:00,27.0,17.0,-100.00,SW,228,2.0,6.0,66,0.00,,,0.00,,2013-04-19 06:32:00,
2013-04-19 00:42:00,27.0,17.0,-100.00,SW,228,2.0,6.0,66,0.00,,,0.00,,2013-04-19 06:42:00,
2013-04-19 00:51:00,28.0,18.0,-100.00,WSW,256,2.0,3.0,67,0.00,,,0.00,,2013-04-19 06:51:00,
2013-04-19 01:12:00,28.0,18.0,-100.00,WSW,256,2.0,3.0,67,0.00,,,0.00,,2013-04-19 07:12:00,
2013-04-19 01:21:00,28.0,18.0,-100.00,WSW,256,2.0,3.0,67,0.00,,,0.00,,2013-04-19 07:21:00,
2013-04-19 01:32:00,28.0,18.0,-100.00,WSW,256,2.0,3.0,67,0.00,,,0.00,,2013-04-19 07:32:00,
2013-04-19 01:42:00,28.0,18.0,-100.00,WSW,256,2.0,3.0,67,0.00,,,0.00,,2013-04-19 07:42:00,
2013-04-19 01:51:00,26.0,18.0,-100.00,SSW,200,2.0,4.0,71,0.00,,,0.00,,2013-04-19 07:51:00,
2013-04-19 02:21:00,26.0,18.0,-100.00,SSW,200,2.0,4.0,71,0.00,,,0.00,,2013-04-19 08:21:00,
2013-04-19 02:32:00,26.0,18.0,-100.00,SSW,200,2.0,4.0,71,0.00,,,0.00,,2013-04-19 08:32:00,
2013-04-19 02:42:00,26.0,18.0,-100.00,SSW,200,2.0,4.0,71,0.00,,,0.00,,2013-04-19 08:42:00,
2013-04-19 02:51:00,25.0,18.0,-100.00,SW,215,2.0,3.0,73,0.00,,,0.00,,2013-04-19 08:51:00,
2013-04-19 03:11:00,25.0,18.0,-100.00,SW,215,2.0,3.0,73,0.00,,,0.00,,2013-04-19 09:11:00,
2013-04-19 03:21:00,25.0,18.0,-100.00,SW,215,2.0,3.0,73,0.00,,,0.00,,2013-04-19 09:21:00,
2013-04-19 03:32:00,25.0,18.0,-100.00,SW,215,2.0,3.0,73,0.00,,,0.00,,2013-04-19 09:32:00,
2013-04-19 03:42:00,25.0,18.0,-100.00,SW,215,2.0,3.0,73,0.00,,,0.00,,2013-04-19 09:42:00,
2013-04-19 03:51:00,25.0,16.0,-100.00,SSW,206,2.0,4.0,69,0.00,,,0.00,,2013-04-19 09:51:00,
2013-04-19 04:13:00,25.0,16.0,-100.00,SSW,206,2.0,4.0,69,0.00,,,0.00,,2013-04-19 10:13:00,
2013-04-19 04:23:00,25.0,16.0,-100.00,SSW,206,2.0,4.0,69,0.00,,,0.00,,2013-04-19 10:23:00,
2013-04-19 04:33:00,25.0,16.0,-100.00,SSW,206,2.0,4.0,69,0.00,,,0.00,,2013-04-19 10:33:00,
2013-04-19 04:42:00,25.0,16.0,-100.00,SSW,206,2.0,4.0,69,0.00,,,0.00,,2013-04-19 10:42:00,
2013-04-19 04:51:00,25.0,16.0,-100.00,East,88,4.0,9.0,68,0.00,,,0.00,,2013-04-19 10:51:00,
2013-04-19 05:11:00,25.0,16.0,-100.00,East,88,4.0,9.0,68,0.00,,,0.00,,2013-04-19 11:11:00,
2013-04-19 05:22:00,25.0,16.0,-100.00,East,88,4.0,9.0,68,0.00,,,0.00,,2013-04-19 11:22:00,
2013-04-19 05:32:00,25.0,16.0,-100.00,East,88,4.0,9.0,68,0.00,,,0.00,,2013-04-19 11:32:00,
2013-04-19 05:42:00,25.0,16.0,-100.00,East,88,4.0,9.0,68,0.00,,,0.00,,2013-04-19 11:42:00,
2013-04-19 05:51:00,23.0,15.0,-100.00,East,87,4.0,10.0,72,0.00,,,0.00,,2013-04-19 11:51:00,
2013-04-19 06:12:00,23.0,15.0,-100.00,East,87,4.0,10.0,72,0.00,,,0.00,,2013-04-19 12:12:00,
2013-04-19 06:22:00,23.0,15.0,-100.00,East,87,4.0,10.0,72,0.00,,,0.00,,2013-04-19 12:22:00,
2013-04-19 06:32:00,23.0,15.0,-100.00,East,87,4.0,10.0,72,0.00,,,0.00,,2013-04-19 12:32:00,
2013-04-19 06:42:00,23.0,15.0,-100.00,East,87,4.0,10.0,72,0.00,,,0.00,,2013-04-19 12:42:00,
2013-04-19 06:51:00,23.0,16.0,-100.00,East,88,5.0,12.0,73,0.00,,,0.00,,2013-04-19 12:51:00,
2013-04-19 07:11:00,23.0,16.0,-100.00,East,88,5.0,12.0,73,0.00,,,0.00,,2013-04-19 13:11:00,
2013-04-19 07:21:00,23.0,16.0,-100.00,East,88,5.0,12.0,73,0.00,,,0.00,,2013-04-19 13:21:00,
2013-04-19 07:32:00,23.0,16.0,-100.00,East,88,5.0,12.0,73,0.00,,,0.00,,2013-04-19 13:32:00,
2013-04-19 07:42:00,23.0,16.0,-100.00,East,88,5.0,12.0,73,0.00,,,0.00,,2013-04-19 13:42:00,
2013-04-19 07:51:00,25.0,17.0,-100.00,SSE,151,2.0,9.0,72,0.00,,,0.00,,2013-04-19 13:51:00,
2013-04-19 08:11:00,25.0,17.0,-100.00,SSE,151,2.0,9.0,72,0.00,,,0.00,,2013-04-19 14:11:00,
2013-04-19 08:21:00,25.0,17.0,-100.00,SSE,151,2.0,9.0,72,0.00,,,0.00,,2013-04-19 14:21:00,
2013-04-19 08:32:00,25.0,17.0,-100.00,SSE,151,2.0,9.0,72,0.00,,,0.00,,2013-04-19 14:32:00,
2013-04-19 08:42:00,25.0,17.0,-100.00,SSE,151,2.0,9.0,72,0.00,,,0.00,,2013-04-19 14:42:00,
2013-04-19 08:51:00,30.0,20.0,-100.00,SW,215,5.0,8.0,67,0.00,,,0.00,,2013-04-19 14:51:00,
2013-04-19 09:12:00,30.0,20.0,-100.00,SW,215,5.0,8.0,67,0.00,,,0.00,,2013-04-19 15:12:00,
2013-04-19 09:21:00,30.0,20.0,-100.00,SW,215,5.0,8.0,67,0.00,,,0.00,,2013-04-19 15:21:00,
2013-04-19 09:33:00,30.0,20.0,-100.00,SW,215,5.0,8.0,67,0.00,,,0.00,,2013-04-19 15:33:00,
2013-04-19 09:43:00,30.0,20.0,-100.00,SW,215,5.0,8.0,67,0.00,,,0.00,,2013-04-19 15:43:00,
2013-04-19 09:51:00,39.0,20.0,-100.00,West,260,7.0,14.0,47,0.00,,,0.00,,2013-04-19 15:51:00,
2013-04-19 10:12:00,39.0,20.0,-100.00,West,260,7.0,14.0,47,0.00,,,0.00,,2013-04-19 16:12:00,
2013-04-19 10:23:00,39.0,20.0,-100.00,West,260,7.0,14.0,47,0.00,,,0.00,,2013-04-19 16:23:00,
2013-04-19 10:32:00,39.0,20.0,-100.00,West,260,7.0,14.0,47,0.00,,,0.00,,2013-04-19 16:32:00,
2013-04-19 10:42:00,39.0,20.0,-100.00,West,260,7.0,14.0,47,0.00,,,0.00,,2013-04-19 16:42:00,
2013-04-19 10:51:00,40.0,20.0,-100.00,WSW,244,8.0,14.0,45,0.00,,,-99.99,,2013-04-19 16:51:00,
2013-04-19 11:12:00,40.0,20.0,-100.00,WSW,244,8.0,14.0,45,0.00,,,-99.99,,2013-04-19 17:12:00,
2013-04-19 11:21:00,40.0,20.0,-100.00,WSW,244,8.0,14.0,45,0.00,,,-99.99,,2013-04-19 17:21:00,
2013-04-19 11:32:00,40.0,20.0,-100.00,WSW,244,8.0,14.0,45,0.00,,,-99.99,,2013-04-19 17:32:00,
2013-04-19 11:42:00,40.0,20.0,-100.00,WSW,244,8.0,14.0,45,0.00,,,-99.99,,2013-04-19 17:42:00,
2013-04-19 11:51:00,43.0,21.0,-100.00,WSW,237,10.0,20.0,41,0.00,,,0.00,,2013-04-19 17:51:00,
2013-04-19 12:13:00,43.0,21.0,-100.00,WSW,237,10.0,20.0,41,0.00,,,0.00,,2013-04-19 18:13:00,
2013-04-19 12:22:00,43.0,21.0,-100.00,WSW,237,10.0,20.0,41,0.00,,,0.00,,2013-04-19 18:22:00,
2013-04-19 12:33:00,43.0,21.0,-100.00,WSW,237,10.0,20.0,41,0.00,,,0.00,,2013-04-19 18:33:00,
2013-04-19 12:42:00,43.0,21.0,-100.00,WSW,237,10.0,20.0,41,0.00,,,0.00,,2013-04-19 18:42:00,
2013-04-19 12:51:00,42.0,22.0,-100.00,SW,225,13.0,22.0,44,0.00,,,0.00,,2013-04-19 18:51:00,
2013-04-19 13:11:00,42.0,22.0,-100.00,SW,225,13.0,22.0,44,0.00,,,0.00,,2013-04-19 19:11:00,
2013-04-19 13:21:00,42.0,22.0,-100.00,SW,225,13.0,22.0,44,0.00,,,0.00,,2013-04-19 19:21:00,
2013-04-19 13:32:00,42.0,22.0,-100.00,SW,225,13.0,22.0,44,0.00,,,0.00,,2013-04-19 19:32:00,
2013-04-19 13:41:00,42.0,22.0,-100.00,SW,225,13.0,22.0,44,0.00,,,0.00,,2013-04-19 19:41:00,
2013-04-19 13:51:00,43.0,24.0,-100.00,WSW,244,10.0,26.0,47,0.00,,,0.00,,2013-04-19 19:51:00,
2013-04-19 14:11:00,43.0,24.0,-100.00,WSW,244,10.0,26.0,47,0.00,,,0.00,,2013-04-19 20:11:00,
2013-04-19 14:22:00,43.0,24.0,-100.00,WSW,244,10.0,26.0,47,0.00,,,0.00,,2013-04-19 20:22:00,
2013-04-19 14:32:00,43.0,24.0,-100.00,WSW,244,10.0,26.0,47,0.00,,,0.00,,2013-04-19 20:32:00,
2013-04-19 14:41:00,43.0,24.0,-100.00,WSW,244,10.0,26.0,47,0.00,,,0.00,,2013-04-19 20:41:00,
2013-04-19 14:51:00,43.0,25.0,-100.00,WSW,250,8.0,20.0,48,0.00,,,0.00,,2013-04-19 20:51:00,
2013-04-19 15:21:00,43.0,25.0,-100.00,WSW,250,8.0,20.0,48,0.00,,,0.00,,2013-04-19 21:21:00,
2013-04-19 15:32:00,43.0,25.0,-100.00,WSW,250,8.0,20.0,48,0.00,,,0.00,,2013-04-19 21:32:00,
2013-04-19 15:42:00,43.0,25.0,-100.00,WSW,250,8.0,20.0,48,0.00,,,0.00,,2013-04-19 21:42:00,
2013-04-19 15:51:00,42.0,28.0,-100.00,WSW,252,8.0,15.0,57,0.00,,,-99.99,,2013-04-19 21:51:00,
2013-04-19 16:22:00,42.0,28.0,-100.00,WSW,252,8.0,15.0,57,0.00,,,-99.99,,2013-04-19 22:22:00,
2013-04-19 16:33:00,42.0,28.0,-100.00,WSW,252,8.0,15.0,57,0.00,,,-99.99,,2013-04-19 22:33:00,
2013-04-19 16:42:00,42.0,28.0,-100.00,WSW,252,8.0,15.0,57,0.00,,,-99.99,,2013-04-19 22:42:00,
2013-04-19 16:51:00,42.0,29.0,-100.00,SW,230,8.0,15.0,59,0.00,,,-99.99,,2013-04-19 22:51:00,
2013-04-19 17:11:00,42.0,29.0,-100.00,SW,230,8.0,15.0,59,0.00,,,-99.99,,2013-04-19 23:11:00,
2013-04-19 17:22:00,42.0,29.0,-100.00,SW,230,8.0,15.0,59,0.00,,,-99.99,,2013-04-19 23:22:00,
2013-04-19 17:32:00,42.0,29.0,-100.00,SW,230,8.0,15.0,59,0.00,,,-99.99,,2013-04-19 23:32:00,
2013-04-19 17:42:00,42.0,29.0,-100.00,SW,230,8.0,15.0,59,0.00,,,-99.99,,2013-04-19 23:42:00,
2013-04-19 17:51:00,42.0,28.0,-100.00,WSW,258,7.0,14.0,58,0.00,,,0.00,,2013-04-19 23:51:00,
2013-04-19 18:12:00,42.0,28.0,-100.00,WSW,258,7.0,14.0,58,0.00,,,0.00,,2013-04-20 00:12:00,
2013-04-19 18:21:00,42.0,28.0,-100.00,WSW,258,7.0,14.0,58,0.00,,,0.00,,2013-04-20 00:21:00,
2013-04-19 18:32:00,42.0,28.0,-100.00,WSW,258,7.0,14.0,58,0.00,,,0.00,,2013-04-20 00:32:00,
2013-04-19 18:41:00,42.0,28.0,-100.00,WSW,258,7.0,14.0,58,0.00,,,0.00,,2013-04-20 00:41:00,
2013-04-19 18:51:00,40.0,28.0,-100.00,WSW,238,7.0,15.0,63,0.00,,,0.00,,2013-04-20 00:51:00,
2013-04-19 19:11:00,40.0,28.0,-100.00,WSW,238,7.0,15.0,63,0.00,,,0.00,,2013-04-20 01:11:00,
2013-04-19 19:21:00,40.0,28.0,-100.00,WSW,238,7.0,15.0,63,0.00,,,0.00,,2013-04-20 01:21:00,
2013-04-19 19:32:00,40.0,28.0,-100.00,WSW,238,7.0,15.0,63,0.00,,,0.00,,2013-04-20 01:32:00,
2013-04-19 19:42:00,40.0,28.0,-100.00,WSW,238,7.0,15.0,63,0.00,,,0.00,,2013-04-20 01:42:00,
2013-04-19 19:51:00,38.0,29.0,-100.00,WSW,251,3.0,11.0,71,0.00,,,0.00,,2013-04-20 01:51:00,
2013-04-19 20:11:00,38.0,29.0,-100.00,WSW,251,3.0,11.0,71,0.00,,,0.00,,2013-04-20 02:11:00,
2013-04-19 20:21:00,38.0,29.0,-100.00,WSW,251,3.0,11.0,71,0.00,,,0.00,,2013-04-20 02:21:00,
2013-04-19 20:32:00,38.0,29.0,-100.00,WSW,251,3.0,11.0,71,0.00,,,0.00,,2013-04-20 02:32:00,
2013-04-19 20:42:00,38.0,29.0,-100.00,WSW,251,3.0,11.0,71,0.00,,,0.00,,2013-04-20 02:42:00,
2013-04-19 20:51:00,37.0,31.0,-100.00,SW,220,4.0,7.0,78,0.00,,,0.00,,2013-04-20 02:51:00,
2013-04-19 21:21:00,37.0,31.0,-100.00,SW,220,4.0,7.0,78,0.00,,,0.00,,2013-04-20 03:21:00,
2013-04-19 21:33:00,37.0,31.0,-100.00,SW,220,4.0,7.0,78,0.00,,,0.00,,2013-04-20 03:33:00,
2013-04-19 21:43:00,37.0,31.0,-100.00,SW,220,4.0,7.0,78,0.00,,,0.00,,2013-04-20 03:43:00,
2013-04-19 21:51:00,36.0,31.0,-100.00,WSW,249,1.0,7.0,81,0.00,,,0.00,,2013-04-20 03:51:00,
2013-04-19 22:23:00,36.0,31.0,-100.00,WSW,249,1.0,7.0,81,0.00,,,0.00,,2013-04-20 04:23:00,
2013-04-19 22:32:00,36.0,31.0,-100.00,WSW,249,1.0,7.0,81,0.00,,,0.00,,2013-04-20 04:32:00,
2013-04-19 22:42:00,36.0,31.0,-100.00,WSW,249,1.0,7.0,81,0.00,,,0.00,,2013-04-20 04:42:00,
2013-04-19 22:51:00,36.0,31.0,-100.00,SSW,207,3.0,9.0,82,0.00,,,0.00,,2013-04-20 04:51:00,
2013-04-19 23:12:00,36.0,31.0,-100.00,SSW,207,3.0,9.0,82,0.00,,,0.00,,2013-04-20 05:12:00,
2013-04-19 23:21:00,36.0,31.0,-100.00,SSW,207,3.0,9.0,82,0.00,,,0.00,,2013-04-20 05:21:00,
2013-04-19 23:32:00,36.0,31.0,-100.00,SSW,207,3.0,9.0,82,0.00,,,0.00,,2013-04-20 05:32:00,
2013-04-19 23:42:00,36.0,31.0,-100.00,SSW,207,3.0,9.0,82,0.00,,,0.00,,2013-04-20 05:42:00,
2013-04-19 23:51:00,36.0,31.0,-100.00,ENE,68,3.0,7.0,83,0.00,,,0.00,,2013-04-20 05:51:00,